Terminal Aerodrome Forecast
Issued by NWS Atlanta, GA

Home | Current Version | Previous Version | Text Only | Print | Product List | Glossary On
Versions: 1 2 3 4 5 6 7 8 9 10 11 12 13 14 15 16 17 18 19 20 21 22 23 24 25 26 27 28 29 30 31 32 33 34 35 36 37 38 39 40 41 42 43
000
FTUS42 KFFC 061639 AAD
TAFAHN
TAF AMD
KAHN 061639Z 0617/0712 08010KT 3SM -SHRA BR OVC005
     FM061800 15010KT 3SM -RA BKN006
     FM062000 25013G20KT P6SM BKN015
     FM062300 29008KT P6SM BKN025
     FM070200 31007KT P6SM SCT035=

USA.gov is the U.S. government's official web portal to all federal, state and local government web resources and services.